Weather History for KPKB - October, 2012

Change the Weather History Date:

Saturday, October 13, 2012

  Actual Average Record
Temperature  
Mean Temperature 52 °F 56 °F  
Max Temperature 71 °F 67 °F 87 °F (1969)
Min Temperature 32 °F 45 °F 24 °F (1988)
Degree Days  
Heating Degree Days 13 9  
Month to date heating degree days 145 101  
Cooling Degree Days 0 1  
Month to date cooling degree days 12 13  
Year to date cooling degree days 1172 949  
Growing Degree Days 2 (Base 50)    
Moisture  
Dew Point 37 °F    
Average Humidity 69    
Maximum Humidity 100    
Minimum Humidity 38    
Precipitation  
Precipitation 0.00 in 0.09 in 0.47 in (2011)
Month to date precipitation 0.34 1.19  
Year to date precipitation 33.14 33.06  
Sea Level Pressure  
Sea Level Pressure 30.33 in    
Wind  
Wind Speed 5 mph (SSE)    
Max Wind Speed 13 mph    
Max Gust Speed 17 mph    
Visibility 5 miles    
Events Fog    
T = Trace of Precipitation, MM = Missing Value Source: NWS Daily Summary

Daily Weather History Graph

Daily Weather History Graph

Search for Another Location

Airport or City:

Trip Planner

Search our weather history database for the weather conditions in past years. The results will help you decide how hot, cold, wet, or windy it might be!

Date:

Astronomy

Oct. 13, 2012 Rise Set
Actual Time 7:34 AM EDT 6:49 PM EDT
Civil Twilight 7:07 AM EDT 7:15 PM EDT
Nautical Twilight 6:35 AM EDT 7:47 PM EDT
Astronomical Twilight 6:04 AM EDT 8:18 PM EDT
Moon 5:22 AM EDT (10/13) 5:31 PM EDT (10/13)
Length of Visible Light 12h 08m
Length of Day
11h 14m
Waning Crescent, 5% of the Moon is Illuminated
Oct 13
Waning Crescent
Oct 15
New
Oct 21
First Quarter
Oct 29
Full
Nov 6
Last Quarter

Hourly Weather History & Observations

Time (EDT) Temp. Dew Point Humidity Pressure Visibility Wind Dir Wind Speed Gust Speed Precip Events Conditions
12:53 AM 35.1 °F 33.1 °F 92% 30.41 in 3.0 mi Calm Calm - N/A   Partly Cloudy
1:53 AM 34.0 °F 30.9 °F 89% 30.41 in 10.0 mi Calm Calm - N/A   Clear
2:47 AM 33.8 °F 30.2 °F 87% 30.39 in 1.8 mi Calm Calm - N/A   Clear
2:53 AM 33.1 °F 30.9 °F 92% 30.40 in 0.8 mi Calm Calm - N/A   Clear
3:07 AM 33.8 °F 30.2 °F 87% 30.38 in 2.5 mi Calm Calm - N/A   Clear
3:14 AM 33.8 °F 32.0 °F 93% 30.37 in 3.0 mi Calm Calm - N/A   Clear
3:37 AM 33.8 °F 30.2 °F 87% 30.37 in 1.8 mi Calm Calm - N/A   Partly Cloudy
3:39 AM 33.8 °F 30.2 °F 87% 30.37 in 0.5 mi Calm Calm - N/A Fog Fog
3:53 AM 33.1 °F 32.0 °F 96% 30.39 in 0.2 mi Calm Calm - N/A Fog Fog
4:53 AM 32.0 °F 30.0 °F 92% 30.39 in 0.2 mi Calm Calm - N/A Fog Fog
5:08 AM 32.0 °F 30.2 °F 93% 30.38 in 0.5 mi Calm Calm - N/A Fog Fog
5:44 AM 32.0 °F 30.2 °F 93% 30.38 in 0.2 mi Calm Calm - N/A Fog Fog
5:53 AM 32.0 °F 30.9 °F 96% 30.39 in 0.2 mi Calm Calm - N/A Fog Fog
6:53 AM 33.1 °F 32.0 °F 96% 30.39 in 0.2 mi Calm Calm - N/A Fog Fog
7:53 AM 34.0 °F 34.0 °F 100% 30.39 in 0.2 mi Calm Calm - N/A Fog Fog
8:34 AM 35.6 °F 35.6 °F 100% 30.37 in 1.0 mi Calm Calm - N/A   Mist
8:53 AM 37.9 °F 37.0 °F 97% 30.39 in 1.0 mi Calm Calm - N/A   Mist
9:00 AM 37.4 °F 37.4 °F 100% 30.37 in 4.0 mi Calm Calm - N/A   Partly Cloudy
9:53 AM 45.0 °F 41.0 °F 86% 30.39 in 8.0 mi Calm Calm - N/A   Clear
10:53 AM 54.0 °F 42.1 °F 64% 30.38 in 10.0 mi SSE 5.8 mph - N/A   Clear
11:53 AM 59.0 °F 42.1 °F 53% 30.34 in 10.0 mi SSE 6.9 mph - N/A   Clear
12:53 PM 63.0 °F 43.0 °F 48% 30.30 in 10.0 mi Variable 4.6 mph - N/A   Clear
1:53 PM 66.0 °F 44.1 °F 45% 30.27 in 10.0 mi Variable 6.9 mph - N/A   Clear
2:53 PM 69.1 °F 45.0 °F 42% 30.24 in 10.0 mi South 10.4 mph - N/A   Clear
3:53 PM 70.0 °F 45.0 °F 41% 30.21 in 10.0 mi SSE 10.4 mph - N/A   Clear
4:53 PM 71.1 °F 45.0 °F 39% 30.19 in 10.0 mi SSE 8.1 mph - N/A   Clear
5:53 PM 69.1 °F 46.9 °F 45% 30.19 in 10.0 mi South 5.8 mph - N/A   Clear
6:53 PM 66.9 °F 46.9 °F 49% 30.17 in 10.0 mi SSE 4.6 mph - N/A   Scattered Clouds
8:53 PM 64.0 °F 46.0 °F 52% 30.16 in 10.0 mi SSE 8.1 mph - N/A   Clear
10:53 PM 63.0 °F 45.0 °F 52% 30.14 in 10.0 mi South 11.5 mph - N/A   Clear